Location: Austin
(30.3000°N, 97.7500°W)
Time: 11:33:53
(UTC-05:00)

ISS - Pass Details

Date: 26 May 2023
Orbit: 412 x 419 km, 51.6° (Epoch: 31 May)

Event Time Altitude Azimuth Distance (km) Brightness Sun altitude
Rises 23:35:22 0° 324° (NW) 2,354 1.2 -31.8°
Reaches altitude 10° 23:37:35 10° 334° (NNW) 1,490 -0.1 -32.0°
Enters shadow 23:37:41 11° 334° (NNW) 1,454 -0.2 -32.0°
